Location: Ballingbuur
(53.0000°N, 5.7667°E)
Time: 19:42:16
(UTC+00:00)

Cosmos 1356 - Pass Details

Date: 15 April 2021
Orbit: 438 x 442 km, 81.1° (Epoch: 13 May)

Event Time Altitude Azimuth Distance (km) Brightness Sun altitude
Rises 19:44:07 0° 353° (N) 2,454 7.7 -9.9°
Reaches altitude 10° 19:46:22 10° 5° (N) 1,578 6.5 -10.2°
Maximum altitude 19:49:27 30° 68° (ENE) 821 4.4 -10.6°
Enters shadow 19:51:29 17° 121° (ESE) 1,200 4.9 -10.9°
